EPKM - Orbit

View from above orbital plane
View from above orbital plane
View from above satellite
View from above satellite

Ground track
Ground track

The orbit data is extracted from the following two-line orbital elements,

1 23725U 95064C   13138.91017295  .00002419  00000-0  59570-3 0  5657
2 23725 025.8063 281.1028 5726709 246.7168 306.1067 04.44342964228417
Epoch (UTC): 18 May 2013 21:50:38
Eccentricity: 0.5726709
inclination: 25.8063°
perigee height: 300 km
apogee height: 18200 km
right ascension of ascending node: 281.1028°
argument of perigee: 246.7168°
revolutions per day: 4.44342964
mean anomaly at epoch: 306.1067°
orbit number at epoch: 22841

The dashed part of the orbit path shows where the satellite is in the earth's shadow,  

Developed and maintained by Chris Peat, Heavens-Above GmbH. Please read the updated FAQ before sending e-mail. Imprint. DLR